Eugene, OR

12:05 PM PST on December 07, 2019 (GMT -0800)
Mahlon Sweet

Weather History for KEUG - September, 2019

Change the Weather History Date:

Thursday, September 19, 2019

  Actual Average Record
Temperature  
Mean Temperature 62 °F 61 °F  
Max Temperature 71 °F 76 °F 93 °F (1974)
Min Temperature 52 °F 46 °F 35 °F (1947)
Degree Days  
Heating Degree Days 3 4  
Month to date heating degree days 36 55  
Since 1 July heating degree days 48 122  
Cooling Degree Days 0 1  
Month to date cooling degree days 43 26  
Year to date cooling degree days 351 234  
Growing Degree Days 12 (Base 50)    
Moisture  
Dew Point 53 °F    
Average Humidity 73    
Maximum Humidity 93    
Minimum Humidity 53    
Precipitation  
Precipitation 0.00 in 0.05 in 1.47 in (1921)
Month to date precipitation 4.04 0.72  
Year to date precipitation 27.25 26.73  
Sea Level Pressure  
Sea Level Pressure 30.07 in    
Wind  
Wind Speed 2 mph (NW)    
Max Wind Speed 10 mph    
Max Gust Speed 14 mph    
Visibility 10 miles    
Events Fog , Rain    
T = Trace of Precipitation, MM = Missing Value Source: NWS Daily Summary

Daily Weather History Graph

Daily Weather History Graph

Search for Another Location

Airport or City:

Astronomy

Sep. 19, 2019 Rise Set
Actual Time 6:56 AM PDT 7:16 PM PDT
Civil Twilight 6:27 AM PDT 7:44 PM PDT
Nautical Twilight 5:53 AM PDT 8:18 PM PDT
Astronomical Twilight 5:18 AM PDT 8:53 PM PDT
Moon 10:17 PM PDT (9/19) 12:16 PM PDT (9/19)
Length of Visible Light 13h 17m
Length of Day
12h 19m
Waning Gibbous, 73% of the Moon is Illuminated
Sep 19
Waning Gibbous
Sep 21
Last Quarter
Sep 28
New
Oct 5
First Quarter
Oct 13
Full

Hourly Weather History & Observations

Time (PDT) Temp. Dew Point Humidity Pressure Visibility Wind Dir Wind Speed Gust Speed Precip Events Conditions
12:05 AM 54.0 °F 52.0 °F 93% 30.00 in 9.0 mi Calm Calm - N/A   Scattered Clouds
12:28 AM 54.0 °F 52.0 °F 93% 30.00 in 5.0 mi Calm Calm - N/A   Mostly Cloudy
12:54 AM 53.1 °F 52.0 °F 96% 30.01 in 10.0 mi Calm Calm - N/A   Mostly Cloudy
1:22 AM 54.0 °F 52.0 °F 93% 30.02 in 8.0 mi Calm Calm - N/A   Overcast
1:54 AM 55.0 °F 53.1 °F 93% 30.02 in 10.0 mi Calm Calm - N/A   Overcast
2:13 AM 55.0 °F 54.0 °F 96% 30.03 in 10.0 mi Calm Calm - N/A   Overcast
2:21 AM 55.9 °F 54.0 °F 93% 30.03 in 10.0 mi Calm Calm - N/A   Overcast
2:54 AM 55.0 °F 53.1 °F 93% 30.03 in 10.0 mi Calm Calm - N/A   Overcast
3:04 AM 55.0 °F 53.1 °F 93% 30.03 in 7.0 mi Calm Calm - N/A   Mostly Cloudy
3:54 AM 55.0 °F 53.1 °F 93% 30.04 in 10.0 mi Calm Calm - N/A   Overcast
4:03 AM 55.0 °F 53.1 °F 93% 30.04 in 10.0 mi Calm Calm - N/A   Overcast
4:11 AM 55.0 °F 53.1 °F 93% 30.04 in 10.0 mi Calm Calm - N/A   Overcast
4:21 AM 55.0 °F 53.1 °F 93% 30.04 in 10.0 mi West 3.5 mph - N/A   Overcast
4:28 AM 55.0 °F 53.1 °F 93% 30.04 in 10.0 mi Calm Calm - N/A   Overcast
4:54 AM 55.0 °F 53.1 °F 93% 30.05 in 10.0 mi Calm Calm - N/A   Overcast
5:54 AM 55.0 °F 53.1 °F 93% 30.06 in 10.0 mi Calm Calm - N/A   Mostly Cloudy
6:26 AM 53.6 °F 51.8 °F 94% 30.06 in 10.0 mi Calm Calm - N/A Fog Patches of Fog
6:54 AM 53.6 °F 51.8 °F 94% 30.07 in 8.0 mi Calm Calm - N/A Fog Patches of Fog
7:54 AM 55.0 °F 53.1 °F 93% 30.09 in 10.0 mi Calm Calm - N/A   Overcast
8:54 AM 57.9 °F 54.0 °F 87% 30.09 in 10.0 mi Calm Calm - N/A   Mostly Cloudy
9:54 AM 60.1 °F 55.0 °F 83% 30.11 in 10.0 mi Calm Calm - N/A   Mostly Cloudy
10:54 AM 63.0 °F 54.0 °F 72% 30.12 in 10.0 mi Calm Calm - N/A   Mostly Cloudy
11:13 AM 64.0 °F 54.0 °F 70% 30.12 in 10.0 mi Variable 3.5 mph - N/A   Mostly Cloudy
11:54 AM 66.0 °F 54.0 °F 65% 30.11 in 10.0 mi Variable 3.5 mph - N/A   Mostly Cloudy
12:54 PM 66.9 °F 53.1 °F 61% 30.11 in 10.0 mi North 5.8 mph - N/A   Mostly Cloudy
1:54 PM 69.1 °F 52.0 °F 54% 30.09 in 10.0 mi NE 5.8 mph - N/A   Mostly Cloudy
2:54 PM 70.0 °F 53.1 °F 55% 30.09 in 10.0 mi NE 9.2 mph - N/A   Mostly Cloudy
3:54 PM 68.0 °F 54.0 °F 61% 30.09 in 10.0 mi ENE 6.9 mph - N/A   Mostly Cloudy
4:54 PM 70.0 °F 52.0 °F 53% 30.09 in 10.0 mi Variable 3.5 mph - N/A   Mostly Cloudy
5:54 PM 69.1 °F 52.0 °F 54% 30.09 in 10.0 mi NNW 4.6 mph - N/A   Scattered Clouds
6:54 PM 66.0 °F 54.0 °F 65% 30.09 in 10.0 mi West 3.5 mph - N/A   Partly Cloudy
7:54 PM 64.0 °F 55.9 °F 75% 30.09 in 10.0 mi WNW 4.6 mph - N/A   Mostly Cloudy
8:54 PM 63.0 °F 55.0 °F 75% 30.10 in 10.0 mi Calm Calm - N/A   Mostly Cloudy
9:54 PM 61.0 °F 55.0 °F 81% 30.09 in 10.0 mi WSW 4.6 mph - N/A   Scattered Clouds
11:54 PM 59.0 °F 55.9 °F 90% 30.11 in 10.0 mi West 3.5 mph - 0.00 in   Overcast